Flag Weather past 2 weeks in Marburg, Hesse, Germany

Now
56 °F

Cool.


Feels Like: 57 °F
Forecast: 48 / 60 °F
Wind: 3 mph from South

Location: Giessen

Current Time: Oct 31, 2014 at 2:07:52 PM

Latest Report: Oct 31, 2014 at 1:00 PM


Visibility: N/A

Pressure: 30.29 "Hg

Humidity: 89%

Dew point: 53 °F

Location of MarburgLocation

Historic Weather in Marburg — Graph

°F

Marburg temperature yesterday

Maximum temperature yesterday: 53 °F (at 11:00 PM)
Minimum temperature yesterday: 47 °F (at 1:00 AM)
Average temperature yesterday: 50 °F

Past Weeks' High & Low Weather Summary

 TemperatureHumidityPressure
High70 °F (Oct 19, 4:00 PM)100% (Oct 17, 1:00 AM)30.37 "Hg (Oct 17, 1:00 AM)
Low42 °F (Oct 22, 3:00 AM)62% (Oct 20, 2:00 PM)29.50 "Hg (Oct 21, 6:00 PM)
Average51 °F91%30.12 "Hg
* Reported Oct 16 2:00 PM — Oct 31 1:00 PM, Marburg, Weather by CustomWeather, © 2014

Note: Actual official high and low records may vary slightly from our data, if they occured in-between our weather recording intervals... More about our weather records

Advertising

Marburg weather history for previous 24 hours

 ConditionsComfort  
Time TempWeatherWind HumidityBarometerVisibility
1:00 PM
Oct 31
56 °FCool.3 mph89%30.29 "HgN/A
12:00 PM55 °FFog.2 mph93%30.31 "Hg2 mi
11:00 AM53 °FFog.2 mph97%30.32 "Hg2 mi
10:00 AM52 °FCool.2 mph99%30.31 "Hg1 mi
9:00 AM52 °FCool.1 mph100%30.30 "Hg1 mi
8:00 AM51 °FCool.1 mph100%30.30 "Hg1 mi
7:00 AM51 °FDuststorm.2 mph100%30.28 "Hg1 mi
6:00 AM52 °FDuststorm.2 mph100%30.28 "Hg1 mi
5:00 AM52 °FDuststorm.2 mph99%30.28 "Hg0 mi
4:00 AM52 °FFog.2 mph99%30.29 "Hg1 mi
3:00 AM53 °FFog.2 mph99%30.28 "Hg1 mi
2:00 AM53 °FFog.2 mph98%30.29 "Hg1 mi
1:00 AM53 °FFog.2 mph97%30.29 "Hg2 mi
12:00 AM53 °FCool.2 mph97%30.29 "Hg2 mi
11:00 PM
Oct 30
53 °FFog.1 mph97%30.30 "Hg2 mi
10:00 PM53 °FFog.2 mph98%30.29 "Hg2 mi
9:00 PM53 °FFog.2 mph97%30.30 "Hg2 mi
8:00 PM53 °FFog.2 mph96%30.29 "Hg2 mi
7:00 PM53 °FFog.2 mph95%30.29 "Hg2 mi
6:00 PM53 °FFog.2 mph94%30.29 "Hg2 mi
5:00 PM53 °FFog.1 mph94%30.28 "Hg2 mi
4:00 PM53 °FFog.2 mph94%30.27 "Hg2 mi
3:00 PM53 °FFog.2 mph93%30.26 "Hg2 mi
2:00 PM53 °FFog.2 mph94%30.26 "Hg2 mi
Weather by CustomWeather, © 2014

See weather overviewHow to use our weather pages